Time,TemperatureF,DewpointF,PressureIn,WindDirection,WindDirectionDegrees,WindSpeedMPH,WindSpeedGustMPH,Humidity,HourlyPrecipIn,Conditions,Clouds,dailyrainin,SoftwareType,DateUTC
2013-05-05 00:03:00,37.0,-99.9,-100.00,WNW,289,3.0,7.0,-999,-99.99,,,-99.99,,2013-05-05 04:03:00,
2013-05-05 00:13:00,37.0,-99.9,-100.00,WNW,289,3.0,7.0,-999,-99.99,,,-99.99,,2013-05-05 04:13:00,
2013-05-05 00:23:00,37.0,-99.9,-100.00,WNW,289,3.0,7.0,-999,-99.99,,,-99.99,,2013-05-05 04:23:00,
2013-05-05 00:33:00,37.0,-99.9,-100.00,WNW,289,3.0,7.0,-999,-99.99,,,-99.99,,2013-05-05 04:33:00,
2013-05-05 00:40:00,37.0,-99.9,-100.00,WNW,298,3.0,7.0,-999,-99.99,,,-99.99,,2013-05-05 04:40:00,
2013-05-05 01:12:00,37.0,-99.9,-100.00,WNW,298,3.0,7.0,-999,-99.99,,,-99.99,,2013-05-05 05:12:00,
2013-05-05 01:22:00,37.0,-99.9,-100.00,WNW,298,3.0,7.0,-999,-99.99,,,-99.99,,2013-05-05 05:22:00,
2013-05-05 01:32:00,37.0,-99.9,-100.00,WNW,298,3.0,7.0,-999,-99.99,,,-99.99,,2013-05-05 05:32:00,
2013-05-05 01:40:00,37.0,-99.9,-100.00,WNW,302,3.0,6.0,-999,-99.99,,,-99.99,,2013-05-05 05:40:00,
2013-05-05 02:02:00,37.0,-99.9,-100.00,WNW,302,3.0,6.0,-999,-99.99,,,-99.99,,2013-05-05 06:02:00,
2013-05-05 02:12:00,37.0,-99.9,-100.00,WNW,302,3.0,6.0,-999,-99.99,,,-99.99,,2013-05-05 06:12:00,
2013-05-05 02:22:00,37.0,-99.9,-100.00,WNW,302,3.0,6.0,-999,-99.99,,,-99.99,,2013-05-05 06:22:00,
2013-05-05 02:32:00,37.0,-99.9,-100.00,WNW,302,3.0,6.0,-999,-99.99,,,-99.99,,2013-05-05 06:32:00,
2013-05-05 02:40:00,35.0,-99.9,-100.00,WNW,299,2.0,3.0,-999,-99.99,,,-99.99,,2013-05-05 06:40:00,
2013-05-05 03:01:00,35.0,-99.9,-100.00,WNW,299,2.0,3.0,-999,-99.99,,,-99.99,,2013-05-05 07:01:00,
2013-05-05 03:11:00,35.0,-99.9,-100.00,WNW,299,2.0,3.0,-999,-99.99,,,-99.99,,2013-05-05 07:11:00,
2013-05-05 03:22:00,35.0,-99.9,-100.00,WNW,299,2.0,3.0,-999,-99.99,,,-99.99,,2013-05-05 07:22:00,
2013-05-05 03:32:00,35.0,-99.9,-100.00,WNW,299,2.0,3.0,-999,-99.99,,,-99.99,,2013-05-05 07:32:00,
2013-05-05 03:40:00,36.0,-99.9,-100.00,NW,308,3.0,6.0,-999,-99.99,,,-99.99,,2013-05-05 07:40:00,
2013-05-05 04:03:00,36.0,-99.9,-100.00,NW,308,3.0,6.0,-999,-99.99,,,-99.99,,2013-05-05 08:03:00,
2013-05-05 04:12:00,36.0,-99.9,-100.00,NW,308,3.0,6.0,-999,-99.99,,,-99.99,,2013-05-05 08:12:00,
2013-05-05 04:22:00,36.0,-99.9,-100.00,NW,308,3.0,6.0,-999,-99.99,,,-99.99,,2013-05-05 08:22:00,
2013-05-05 04:32:00,36.0,-99.9,-100.00,NW,308,3.0,6.0,-999,-99.99,,,-99.99,,2013-05-05 08:32:00,
2013-05-05 04:40:00,36.0,-99.9,-100.00,NW,326,3.0,8.0,-999,-99.99,,,-99.99,,2013-05-05 08:40:00,
2013-05-05 05:01:00,36.0,-99.9,-100.00,NW,326,3.0,8.0,-999,-99.99,,,-99.99,,2013-05-05 09:01:00,
2013-05-05 05:12:00,36.0,-99.9,-100.00,NW,326,3.0,8.0,-999,-99.99,,,-99.99,,2013-05-05 09:12:00,
2013-05-05 05:22:00,36.0,-99.9,-100.00,NW,326,3.0,8.0,-999,-99.99,,,-99.99,,2013-05-05 09:22:00,
2013-05-05 05:33:00,36.0,-99.9,-100.00,NW,326,3.0,8.0,-999,-99.99,,,-99.99,,2013-05-05 09:33:00,
2013-05-05 05:40:00,36.0,-99.9,-100.00,NW,309,5.0,8.0,-999,-99.99,,,-99.99,,2013-05-05 09:40:00,
2013-05-05 06:03:00,36.0,-99.9,-100.00,NW,309,5.0,8.0,-999,-99.99,,,-99.99,,2013-05-05 10:03:00,
2013-05-05 06:12:00,36.0,-99.9,-100.00,NW,309,5.0,8.0,-999,-99.99,,,-99.99,,2013-05-05 10:12:00,
2013-05-05 06:22:00,36.0,-99.9,-100.00,NW,309,5.0,8.0,-999,-99.99,,,-99.99,,2013-05-05 10:22:00,
2013-05-05 06:32:00,36.0,-99.9,-100.00,NW,309,5.0,8.0,-999,-99.99,,,-99.99,,2013-05-05 10:32:00,
2013-05-05 06:40:00,36.0,-99.9,-100.00,NW,318,5.0,8.0,-999,-99.99,,,-99.99,,2013-05-05 10:40:00,
2013-05-05 07:02:00,36.0,-99.9,-100.00,NW,318,5.0,8.0,-999,-99.99,,,-99.99,,2013-05-05 11:02:00,
2013-05-05 07:12:00,36.0,-99.9,-100.00,NW,318,5.0,8.0,-999,-99.99,,,-99.99,,2013-05-05 11:12:00,
2013-05-05 07:22:00,36.0,-99.9,-100.00,NW,318,5.0,8.0,-999,-99.99,,,-99.99,,2013-05-05 11:22:00,
2013-05-05 07:32:00,36.0,-99.9,-100.00,NW,318,5.0,8.0,-999,-99.99,,,-99.99,,2013-05-05 11:32:00,
2013-05-05 07:40:00,36.0,-99.9,-100.00,NNW,328,4.0,9.0,-999,-99.99,,,-99.99,,2013-05-05 11:40:00,
2013-05-05 08:02:00,36.0,-99.9,-100.00,NNW,328,4.0,9.0,-999,-99.99,,,-99.99,,2013-05-05 12:02:00,
2013-05-05 08:12:00,36.0,-99.9,-100.00,NNW,328,4.0,9.0,-999,-99.99,,,-99.99,,2013-05-05 12:12:00,
2013-05-05 08:22:00,36.0,-99.9,-100.00,NNW,328,4.0,9.0,-999,-99.99,,,-99.99,,2013-05-05 12:22:00,
2013-05-05 08:32:00,36.0,-99.9,-100.00,NNW,328,4.0,9.0,-999,-99.99,,,-99.99,,2013-05-05 12:32:00,
2013-05-05 08:40:00,37.0,-99.9,-100.00,NW,324,8.0,11.0,-999,-99.99,,,-99.99,,2013-05-05 12:40:00,
2013-05-05 09:02:00,37.0,-99.9,-100.00,NW,324,8.0,11.0,-999,-99.99,,,-99.99,,2013-05-05 13:02:00,
2013-05-05 09:11:00,37.0,-99.9,-100.00,NW,324,8.0,11.0,-999,-99.99,,,-99.99,,2013-05-05 13:11:00,
2013-05-05 09:22:00,37.0,-99.9,-100.00,NW,324,8.0,11.0,-999,-99.99,,,-99.99,,2013-05-05 13:22:00,
2013-05-05 09:32:00,37.0,-99.9,-100.00,NW,324,8.0,11.0,-999,-99.99,,,-99.99,,2013-05-05 13:32:00,
2013-05-05 09:40:00,40.0,-99.9,-100.00,North,354,8.0,13.0,-999,-99.99,,,-99.99,,2013-05-05 13:40:00,
2013-05-05 10:02:00,40.0,-99.9,-100.00,North,354,8.0,13.0,-999,-99.99,,,-99.99,,2013-05-05 14:02:00,
2013-05-05 10:11:00,40.0,-99.9,-100.00,North,354,8.0,13.0,-999,-99.99,,,-99.99,,2013-05-05 14:11:00,
2013-05-05 10:22:00,40.0,-99.9,-100.00,North,354,8.0,13.0,-999,-99.99,,,-99.99,,2013-05-05 14:22:00,
2013-05-05 10:32:00,40.0,-99.9,-100.00,North,354,8.0,13.0,-999,-99.99,,,-99.99,,2013-05-05 14:32:00,
2013-05-05 10:40:00,42.0,-99.9,-100.00,North,4,9.0,13.0,-999,-99.99,,,-99.99,,2013-05-05 14:40:00,
2013-05-05 11:02:00,42.0,-99.9,-100.00,North,4,9.0,13.0,-999,-99.99,,,-99.99,,2013-05-05 15:02:00,
2013-05-05 11:11:00,42.0,-99.9,-100.00,North,4,9.0,13.0,-999,-99.99,,,-99.99,,2013-05-05 15:11:00,
2013-05-05 11:22:00,42.0,-99.9,-100.00,North,4,9.0,13.0,-999,-99.99,,,-99.99,,2013-05-05 15:22:00,
2013-05-05 11:33:00,42.0,-99.9,-100.00,North,4,9.0,13.0,-999,-99.99,,,-99.99,,2013-05-05 15:33:00,
2013-05-05 11:40:00,41.0,-99.9,-100.00,NNE,14,14.0,15.0,-999,-99.99,,,-99.99,,2013-05-05 15:40:00,
2013-05-05 12:03:00,41.0,-99.9,-100.00,NNE,14,14.0,15.0,-999,-99.99,,,-99.99,,2013-05-05 16:03:00,
2013-05-05 12:12:00,41.0,-99.9,-100.00,NNE,14,14.0,15.0,-999,-99.99,,,-99.99,,2013-05-05 16:12:00,
2013-05-05 12:23:00,41.0,-99.9,-100.00,NNE,14,14.0,15.0,-999,-99.99,,,-99.99,,2013-05-05 16:23:00,
2013-05-05 12:32:00,41.0,-99.9,-100.00,NNE,14,14.0,15.0,-999,-99.99,,,-99.99,,2013-05-05 16:32:00,
2013-05-05 12:40:00,41.0,-99.9,-100.00,NNE,18,15.0,16.0,-999,-99.99,,,-99.99,,2013-05-05 16:40:00,
2013-05-05 13:02:00,41.0,-99.9,-100.00,NNE,18,15.0,16.0,-999,-99.99,,,-99.99,,2013-05-05 17:02:00,
2013-05-05 13:12:00,41.0,-99.9,-100.00,NNE,18,15.0,16.0,-999,-99.99,,,-99.99,,2013-05-05 17:12:00,
2013-05-05 13:24:00,41.0,-99.9,-100.00,NNE,18,15.0,16.0,-999,-99.99,,,-99.99,,2013-05-05 17:24:00,
2013-05-05 13:32:00,41.0,-99.9,-100.00,NNE,18,15.0,16.0,-999,-99.99,,,-99.99,,2013-05-05 17:32:00,
2013-05-05 13:40:00,40.0,-99.9,-100.00,NNE,21,13.0,15.0,-999,-99.99,,,-99.99,,2013-05-05 17:40:00,
2013-05-05 14:01:00,40.0,-99.9,-100.00,NNE,21,13.0,15.0,-999,-99.99,,,-99.99,,2013-05-05 18:01:00,
2013-05-05 14:12:00,40.0,-99.9,-100.00,NNE,21,13.0,15.0,-999,-99.99,,,-99.99,,2013-05-05 18:12:00,
2013-05-05 14:22:00,40.0,-99.9,-100.00,NNE,21,13.0,15.0,-999,-99.99,,,-99.99,,2013-05-05 18:22:00,
2013-05-05 14:32:00,40.0,-99.9,-100.00,NNE,21,13.0,15.0,-999,-99.99,,,-99.99,,2013-05-05 18:32:00,
2013-05-05 14:40:00,41.0,-99.9,-100.00,NNE,26,9.0,11.0,-999,-99.99,,,-99.99,,2013-05-05 18:40:00,
2013-05-05 15:02:00,41.0,-99.9,-100.00,NNE,26,9.0,11.0,-999,-99.99,,,-99.99,,2013-05-05 19:02:00,
2013-05-05 15:12:00,41.0,-99.9,-100.00,NNE,26,9.0,11.0,-999,-99.99,,,-99.99,,2013-05-05 19:12:00,
2013-05-05 15:22:00,41.0,-99.9,-100.00,NNE,26,9.0,11.0,-999,-99.99,,,-99.99,,2013-05-05 19:22:00,
2013-05-05 15:32:00,41.0,-99.9,-100.00,NNE,26,9.0,11.0,-999,-99.99,,,-99.99,,2013-05-05 19:32:00,
2013-05-05 15:40:00,43.0,-99.9,-100.00,NNE,27,4.0,5.0,-999,-99.99,,,-99.99,,2013-05-05 19:40:00,
2013-05-05 16:02:00,43.0,-99.9,-100.00,NNE,27,4.0,5.0,-999,-99.99,,,-99.99,,2013-05-05 20:02:00,
2013-05-05 16:11:00,43.0,-99.9,-100.00,NNE,27,4.0,5.0,-999,-99.99,,,-99.99,,2013-05-05 20:11:00,
2013-05-05 16:21:00,43.0,-99.9,-100.00,NNE,27,4.0,5.0,-999,-99.99,,,-99.99,,2013-05-05 20:21:00,
2013-05-05 16:32:00,43.0,-99.9,-100.00,NNE,27,4.0,5.0,-999,-99.99,,,-99.99,,2013-05-05 20:32:00,
2013-05-05 16:40:00,45.0,-99.9,-100.00,NNE,12,5.0,6.0,-999,-99.99,,,-99.99,,2013-05-05 20:40:00,
2013-05-05 17:02:00,45.0,-99.9,-100.00,NNE,12,5.0,6.0,-999,-99.99,,,-99.99,,2013-05-05 21:02:00,
2013-05-05 17:11:00,45.0,-99.9,-100.00,NNE,12,5.0,6.0,-999,-99.99,,,-99.99,,2013-05-05 21:11:00,
2013-05-05 17:22:00,45.0,-99.9,-100.00,NNE,12,5.0,6.0,-999,-99.99,,,-99.99,,2013-05-05 21:22:00,
2013-05-05 17:33:00,45.0,-99.9,-100.00,NNE,12,5.0,6.0,-999,-99.99,,,-99.99,,2013-05-05 21:33:00,
2013-05-05 17:40:00,44.0,-99.9,-100.00,North,4,5.0,6.0,-999,-99.99,,,-99.99,,2013-05-05 21:40:00,
2013-05-05 18:03:00,44.0,-99.9,-100.00,North,4,5.0,6.0,-999,-99.99,,,-99.99,,2013-05-05 22:03:00,
2013-05-05 18:12:00,44.0,-99.9,-100.00,North,4,5.0,6.0,-999,-99.99,,,-99.99,,2013-05-05 22:12:00,
2013-05-05 18:23:00,44.0,-99.9,-100.00,North,4,5.0,6.0,-999,-99.99,,,-99.99,,2013-05-05 22:23:00,
2013-05-05 18:34:00,44.0,-99.9,-100.00,North,4,5.0,6.0,-999,-99.99,,,-99.99,,2013-05-05 22:34:00,
2013-05-05 18:40:00,43.0,-99.9,-100.00,NNE,16,3.0,4.0,-999,-99.99,,,-99.99,,2013-05-05 22:40:00,
2013-05-05 19:02:00,43.0,-99.9,-100.00,NNE,16,3.0,4.0,-999,-99.99,,,-99.99,,2013-05-05 23:02:00,
2013-05-05 19:12:00,43.0,-99.9,-100.00,NNE,16,3.0,4.0,-999,-99.99,,,-99.99,,2013-05-05 23:12:00,
2013-05-05 19:22:00,43.0,-99.9,-100.00,NNE,16,3.0,4.0,-999,-99.99,,,-99.99,,2013-05-05 23:22:00,
2013-05-05 19:32:00,43.0,-99.9,-100.00,NNE,16,3.0,4.0,-999,-99.99,,,-99.99,,2013-05-05 23:32:00,
2013-05-05 19:40:00,41.0,-99.9,-100.00,NNE,20,3.0,5.0,-999,-99.99,,,-99.99,,2013-05-05 23:40:00,
2013-05-05 20:01:00,41.0,-99.9,-100.00,NNE,20,3.0,5.0,-999,-99.99,,,-99.99,,2013-05-06 00:01:00,
2013-05-05 20:11:00,41.0,-99.9,-100.00,NNE,20,3.0,5.0,-999,-99.99,,,-99.99,,2013-05-06 00:11:00,
2013-05-05 20:22:00,41.0,-99.9,-100.00,NNE,20,3.0,5.0,-999,-99.99,,,-99.99,,2013-05-06 00:22:00,
2013-05-05 20:32:00,41.0,-99.9,-100.00,NNE,20,3.0,5.0,-999,-99.99,,,-99.99,,2013-05-06 00:32:00,
2013-05-05 20:40:00,40.0,-99.9,-100.00,NE,51,0.0,1.0,-999,-99.99,,,-99.99,,2013-05-06 00:40:00,
2013-05-05 21:01:00,40.0,-99.9,-100.00,NE,51,0.0,1.0,-999,-99.99,,,-99.99,,2013-05-06 01:01:00,
2013-05-05 21:11:00,40.0,-99.9,-100.00,NE,51,0.0,1.0,-999,-99.99,,,-99.99,,2013-05-06 01:11:00,
2013-05-05 21:21:00,40.0,-99.9,-100.00,NE,51,0.0,1.0,-999,-99.99,,,-99.99,,2013-05-06 01:21:00,
2013-05-05 21:32:00,40.0,-99.9,-100.00,NE,51,0.0,1.0,-999,-99.99,,,-99.99,,2013-05-06 01:32:00,
2013-05-05 21:40:00,38.0,-99.9,-100.00,SSW,205,1.0,1.0,-999,-99.99,,,-99.99,,2013-05-06 01:40:00,
2013-05-05 22:02:00,38.0,-99.9,-100.00,SSW,205,1.0,1.0,-999,-99.99,,,-99.99,,2013-05-06 02:02:00,
2013-05-05 22:12:00,38.0,-99.9,-100.00,SSW,205,1.0,1.0,-999,-99.99,,,-99.99,,2013-05-06 02:12:00,
2013-05-05 22:22:00,38.0,-99.9,-100.00,SSW,205,1.0,1.0,-999,-99.99,,,-99.99,,2013-05-06 02:22:00,
2013-05-05 22:32:00,38.0,-99.9,-100.00,SSW,205,1.0,1.0,-999,-99.99,,,-99.99,,2013-05-06 02:32:00,
2013-05-05 22:40:00,36.0,-99.9,-100.00,SW,214,1.0,2.0,-999,-99.99,,,-99.99,,2013-05-06 02:40:00,
2013-05-05 23:02:00,36.0,-99.9,-100.00,SW,214,1.0,2.0,-999,-99.99,,,-99.99,,2013-05-06 03:02:00,
2013-05-05 23:11:00,36.0,-99.9,-100.00,SW,214,1.0,2.0,-999,-99.99,,,-99.99,,2013-05-06 03:11:00,
2013-05-05 23:22:00,36.0,-99.9,-100.00,SW,214,1.0,2.0,-999,-99.99,,,-99.99,,2013-05-06 03:22:00,
2013-05-05 23:33:00,36.0,-99.9,-100.00,SW,214,1.0,2.0,-999,-99.99,,,-99.99,,2013-05-06 03:33:00,
2013-05-05 23:40:00,34.0,-99.9,-100.00,South,181,2.0,3.0,-999,-99.99,,,-99.99,,2013-05-06 03:40:00,